Location: Warszawa
(52.2500°N, 21.0000°E)
Time: 07:10:59
(UTC+01:00)

Vanguard 1 Rocket - Visible Passes

Search period start: 06 February 2023 00:00
Search period end: 16 February 2023 00:00
Orbit: 651 x 4224 km, 34.3° (Epoch: 05 February)

Date Brightness Start Highest point End Pass type
(mag) Time Alt. Az. Time Alt. Az. Time Alt. Az.
06 Feb 12.1 17:48:01 10° WSW 18:01:15 21° SW 18:17:18 10° S visible
07 Feb 12.0 16:34:41 10° WSW 16:48:18 28° SSW 17:06:44 10° SSE visible
08 Feb 12.2 17:52:13 10° WSW 18:02:46 17° SW 18:15:16 10° S visible
10 Feb 12.4 17:58:36 10° WSW 18:04:21 12° SW 18:10:42 10° SSW visible
